COSMOS 2294 (GLONASS)

Satellite information

Favourite Embed

Satellite Type and Status

PAYLOADIN ORBIT

Key statistics

Satellite COSMOS 2294 (GLONASS) at a glance.

Uptime

11294

Days in orbit

Revolutions

≈ 2.1

Per day

Orbit

MEO

Medium Earth Orbit

Inclination

64.7

Latest

Satellite identification and parameters

Extended collection of information and parameters for COSMOS 2294 (GLONASS).

Object identification

Identified? True

Debris? False

Object name: COSMOS 2294 (GLONASS)

International designator: 1994-076C

Object number (NORAD): 23398

Object ID (CCSDS): 23398

Country: COMMONWEALTH OF INDEPENDENT STATES (CIS)

Current information (Y/N): Y

RCS size: LARGE

Orbital parameters

Period: 675.733 minutes

Inclination: 64.6904 deg

SMA: 25508.042 km

Apoapsis: 19142.709 km

Periapsis: 19117.106 km

RAAN: 77.1149 deg

Eccentricy: 0.00050187

Argument of periapsis: 38.2592 deg

Mean anomaly: 317.7414 deg

Mean motion: 2.13101776 rev/day

Mean motion (dot): 0.00000006 rev/day2

B* drag term: 0.0 1/REarth

Two-line elements (TLE)

Creation date: Oct. 19, 2025, 2:20 a.m.

Reference frame: TEME

Reference center: EARTH

Epoch: Oct. 18, 2025, 8:47 p.m. UTC

TLE line 0: 0 COSMOS 2294 (GLONASS)

TLE line 1: 1 23398U 94076C 25291.86629231 .00000006 00000-0 00000-0 0 9993

TLE line 2: 2 23398 64.6904 77.1149 0005019 38.2592 317.7414 2.13101776240538

Live tracking on map

Real-time ground track for satellite COSMOS 2294 (GLONASS).

In-orbit conjunctions

A list of the most updated potential collisions computed for object COSMOS 2294 (GLONASS).

Target Orbit TCA Probability of collision Miss distance Type
COSMOS 2288 (GLONASS) MEO 2025-10-23 00:50:03 TBA 4544.0 (m) PAYLOAD
COSMOS 2288 (GLONASS) MEO 2025-10-22 13:34:18 TBA 3552.0 (m) PAYLOAD
COSMOS 2288 (GLONASS) MEO 2025-10-22 02:18:34 TBA 2434.0 (m) PAYLOAD
COSMOS 2288 (GLONASS) MEO 2025-10-21 15:02:50 TBA 1263.0 (m) PAYLOAD
COSMOS 2288 (GLONASS) MEO 2025-10-21 03:47:05 TBA 418.0 (m) PAYLOAD

Associated space launch

GLONASS navigation satellites

COSMOS 2294 (GLONASS) was lifted into orbit during the mission ‘Proton | Uragan 60 to 62’, on board a Proton space rocket.

The launch took place on Nov. 20, 1994, 12:39 a.m. from 200/39 (200L).

For more information about the launch, click the button.

Launch to space Proton | Uragan 60 to 62
Proton | Uragan 60 to 62

Agency: N/A

Status: Launch Successful

Launch date: Nov. 20, 1994, 12:39 a.m. UTC

Rocket: Proton

Launch pad: 200/39 (200L)

Location: Baikonur Cosmodrome, Republic of Kazakhstan

...

Latest news about this satellite

There are no fresh news available about this satellite. Check back as we update our databases every day.


Newsletter sign-up

Weekly statistics, charts and insights to help you stay on top of the space industry.